Regional Weather Roundup
Issued by NWS

Home | Current Version | Previous Version | Text Only | Print | Product List | Glossary On
Versions: 1 2 3 4 5 6 7 8 9 10 11 12 13 14 15 16 17 18 19 20 21 22 23 24 25 26 27 28
000
ASCA42 TJSJ 282110
RWRPR
PUERTO RICO/U.S. VIRGIN ISLANDS HOURLY WEATHER ROUNDUP
NATIONAL WEATHER SERVICE SAN JUAN PR
500 PM AST SUN AUG 28 2016

PRZ001>002-007>008-010-282200-
PUERTO RICO

CITY           SKY/WX    TMP DP  RH WIND       PRES   REMARKS
SAN JUAN LMM   PTSUNNY   82  75  78 E6        29.94F
AGUADILLA      MOSUNNY   82  73  74 SW6       29.97S
CEIBA          PTSUNNY   82  79  89 SE5       29.97S HX  93
$$

VIZ001>002-282200-
U.S. VIRGIN ISLANDS

CITY           SKY/WX    TMP DP  RH WIND       PRES   REMARKS
CHRISTIANSTED  MOSUNNY   86  75  70 E6        29.95S HX  95
$$

HOURLY WEATHER ROUNDUP FOR THE NEWS MEDIA

CITY           SKY/WX    TMP DP  RH WIND       PRES   REMARKS
ORLANDO        MOSUNNY   91  74  57 NE18G24   29.93S HX 100
NEW YORK       MOSUNNY   81  59  47 SE14      30.20F
NEWARK         MOSUNNY   84  60  44 SE13      30.17F
CHICAGO        MOSUNNY   81  68  64 E10       30.17F
HARTFORD       SUNNY     80  63  55 SE15      30.20F
BOSTON         MOSUNNY   74  65  73 E18       30.18F
DALLAS         MOSUNNY   90  64  42 E12       29.99F HX  91
PHILADELPHIA   MOSUNNY   89  63  41 S8        30.16F HX  90
LOS ANGELES    MOSUNNY   74  60  61 W13       29.99F
WASHINGTON DC  MOSUNNY   89  59  36 SE9       30.16F



USA.gov is the U.S. government's official web portal to all federal, state and local government web resources and services.